Back to catalog

ATLAS 5 CENTAUR DEB

LostHEO
NORAD 49354·DEBRIS·🇺🇸 United States

Launched Oct 17, 2018 from Cape Canaveral Space Force Station

Loading…

Next Passes (next 24 hours)

TLE

StaleSource: Space-Track

Epoch: Jun 22, 2022, 06:46 UTC

1 49354U 18079FF  22173.28219752 -.00000058  00000-0  00000+0 0  9994
2 49354  10.2434 188.9384 4692614  22.7434 352.7143  1.70007481  5048

Track ATLAS 5 CENTAUR DEB in real time with AllMySat

Download on the App Store